Location: Mannheim
(49.4880°N, 8.4650°E)
Time: 01:38:59
(UTC+01:00)

ISS - Pass Details

Date: 24 January 2023
Orbit: 413 x 419 km, 51.6° (Epoch: 30 January)

Event Time Altitude Azimuth Distance (km) Brightness Sun altitude
Rises 18:30:20 0° 263° (W) 2,365 2.0 -13.2°
Reaches altitude 10° 18:32:26 10° 266° (W) 1,502 0.5 -13.5°
Maximum altitude 18:35:47 66° 349° (N) 463 -3.6 -14.0°
Enters shadow 18:37:21 29° 65° (ENE) 807 -2.9 -14.3°
